FW9794 Weather Reports


time (UTC)temp
F
wind
direction
speed
knots
gust
knots
rain 1hr
in
rain 24hr
in
rain mn
in
humidity
%
barometer
mb
20260906101047 71 0 0.0 0.0 0.00 0.00 0.00 98 1011.9
20260906100548 71 0 0.0 0.0 0.00 0.00 0.00 98 1012.1
20260906100105 71 0 0.0 0.0 0.00 0.00 0.00 98 1012.0
20260906095550 71 0 0.0 0.0 0.00 0.00 0.00 98 1012.0
20260906095047 71 0 0.0 0.0 0.00 0.00 0.00 97 1012.0
20260906094606 71 0 0.0 0.0 0.00 0.00 0.00 97 1012.1
20260906094049 71 0 0.0 0.9 0.00 0.00 0.00 97 1012.1
20260906093547 71 0 0.0 0.9 0.00 0.00 0.00 97 1012.2
20260906093118 71 0 0.0 0.9 0.00 0.00 0.00 97 1012.2
20260906092549 71 0 0.0 0.0 0.00 0.00 0.00 97 1012.1
20260906092047 71 0 0.0 0.9 0.00 0.00 0.00 97 1012.2
20260906091605 71 0 0.0 0.9 0.00 0.00 0.00 97 1012.2
20260906091048 71 0 0.0 1.7 0.00 0.00 0.00 97 1012.2
20260906090548 72 0 0.0 2.6 0.00 0.00 0.00 97 1012.2
20260906090128 72 360 0.0 2.6 0.00 0.00 0.00 97 1012.1
20260906085547 72 0 0.0 3.5 0.00 0.00 0.00 97 1012.1
20260906085047 72 360 0.9 3.5 0.00 0.00 0.00 97 1012.0
20260906084604 72 0 0.0 2.6 0.00 0.00 0.00 98 1011.9
20260906084048 72 360 0.9 2.6 0.00 0.00 0.00 98 1011.8
20260906083549 72 360 0.0 3.5 0.00 0.00 0.00 98 1012.1
20260906083103 72 360 0.9 3.5 0.00 0.00 0.00 98 1012.0
20260906082549 71 360 0.0 0.0 0.00 0.00 0.00 97 1011.9
20260906082050 72 0 0.0 0.0 0.00 0.00 0.00 97 1012.0
20260906081604 72 0 0.0 0.0 0.00 0.00 0.00 97 1012.0
20260906081051 72 0 0.0 0.0 0.00 0.00 0.00 97 1012.0
20260906080548 72 0 0.0 0.0 0.00 0.00 0.00 97 1011.9
20260906080105 72 0 0.0 0.0 0.00 0.00 0.00 97 1011.8
20260906075547 72 0 0.0 0.0 0.00 0.00 0.00 97 1011.9
20260906075047 72 0 0.0 0.0 0.00 0.00 0.00 97 1011.9
20260906074604 72 0 0.0 0.0 0.00 0.00 0.00 97 1011.7
20260906074049 72 0 0.0 0.0 0.00 0.00 0.00 97 1011.5
20260906073550 72 0 0.0 0.0 0.00 0.00 0.00 97 1011.5
20260906073101 72 0 0.0 0.0 0.00 0.00 0.00 97 1011.4
20260906072547 72 0 0.0 0.9 0.00 0.00 0.00 97 1011.5
20260906072050 72 0 0.0 0.9 0.00 0.00 0.00 97 1011.5
20260906071609 73 0 0.0 0.9 0.00 0.00 0.00 97 1011.4
20260906071050 73 0 0.0 0.9 0.00 0.00 0.00 97 1011.3
20260906070550 73 0 0.0 1.7 0.00 0.00 0.00 97 1011.5
20260906070105 73 0 0.0 1.7 0.00 0.00 0.00 97 1011.5
20260906065550 73 0 0.0 1.7 0.00 0.00 0.00 97 1011.6
20260906065047 73 360 0.0 2.6 0.00 0.00 0.00 97 1011.5
20260906064558 73 360 0.9 3.5 0.00 0.00 0.00 97 1011.5
20260906064050 73 360 0.9 3.5 0.00 0.00 0.00 97 1011.5
20260906063549 73 360 0.0 2.6 0.00 0.00 0.00 97 1011.4
20260906063102 73 0 0.0 0.0 0.00 0.00 0.00 96 1011.5
20260906062549 73 0 0.0 0.0 0.00 0.00 0.00 96 1011.6
20260906062052 73 0 0.0 0.0 0.00 0.00 0.00 96 1011.6
20260906061607 73 0 0.0 0.9 0.00 0.00 0.00 95 1011.6
20260906061049 73 0 0.0 0.9 0.00 0.00 0.00 95 1011.6
20260906060547 73 360 0.0 0.9 0.00 0.00 0.00 95 1011.7
20260906060104 73 0 0.0 0.9 0.00 0.00 0.00 95 1011.8
20260906055549 74 360 0.0 0.9 0.00 0.00 0.00 95 1011.8
20260906055049 74 0 0.0 0.0 0.00 0.00 0.00 96 1012.0
20260906054604 74 0 0.0 0.0 0.00 0.00 0.00 95 1012.0
20260906054053 74 0 0.0 0.0 0.00 0.00 0.00 96 1012.1
20260906053550 73 0 0.0 0.0 0.00 0.00 0.00 95 1012.1
20260906053101 74 0 0.0 0.0 0.00 0.00 0.00 95 1012.2
20260906052549 74 0 0.0 0.0 0.00 0.00 0.00 94 1012.3
20260906052048 74 0 0.0 0.0 0.00 0.00 0.00 95 1012.3
20260906051601 74 0 0.0 0.0 0.00 0.00 0.00 94 1012.4
20260906051049 74 0 0.0 0.0 0.00 0.00 0.00 94 1012.3
20260906050549 74 0 0.0 0.0 0.00 0.00 0.00 94 1012.3
20260906050133 74 0 0.0 0.0 0.00 0.00 0.00 94 1012.3
20260906045548 74 0 0.0 0.0 0.00 0.00 0.00 93 1012.2
20260906045047 74 0 0.0 0.0 0.00 0.00 0.00 93 1012.3
20260906044602 74 0 0.0 0.0 0.00 0.00 0.00 93 1012.5
20260906044048 74 0 0.0 0.0 0.00 0.00 0.00 92 1012.5
20260906043549 74 0 0.0 0.0 0.00 0.00 0.00 93 1012.8
20260906043109 75 0 0.0 0.0 0.00 0.00 0.00 93 1012.7
20260906042552 75 0 0.0 0.0 0.00 0.00 0.00 92 1012.7
20260906042053 75 0 0.0 0.0 0.00 0.00 0.00 92 1012.7
20260906041605 75 0 0.0 0.0 0.00 0.00 0.00 92 1012.5
20260906041048 75 0 0.0 0.0 0.00 0.00 0.00 92 1012.5
20260906040547 75 0 0.0 0.0 0.00 0.00 0.00 92 1012.5
20260906040117 75 0 0.0 0.0 0.00 0.00 0.00 92 1012.6
20260906035548 75 0 0.0 0.0 0.00 0.00 0.00 92 1012.6
20260906035050 75 0 0.0 0.0 0.00 0.00 0.00 91 1012.5
20260906034606 76 0 0.0 0.0 0.00 0.00 0.00 91 1012.4
20260906034050 76 0 0.0 0.0 0.00 0.00 0.00 91 1012.4
20260906033549 76 0 0.0 0.0 0.00 0.00 0.00 91 1012.4
20260906033108 76 0 0.0 0.0 0.00 0.00 0.00 91 1012.5
20260906032549 76 0 0.0 0.0 0.00 0.00 0.00 90 1012.4
20260906032049 76 0 0.0 0.0 0.00 0.00 0.00 91 1012.5
20260906031605 76 0 0.0 0.0 0.00 0.00 0.00 90 1012.4
20260906031049 76 0 0.0 0.0 0.00 0.00 0.00 90 1012.6
20260906030548 76 0 0.0 0.0 0.00 0.00 0.00 91 1012.6
20260906030135 76 0 0.0 0.0 0.00 0.00 0.00 91 1012.4
20260906025547 76 0 0.0 0.0 0.00 0.00 0.00 91 1012.5
20260906025049 76 0 0.0 0.0 0.00 0.00 0.00 91 1012.5
20260906024628 76 0 0.0 0.0 0.00 0.00 0.00 90 1012.6
20260906024047 76 0 0.0 0.0 0.00 0.00 0.00 90 1012.4
20260906023547 76 0 0.0 0.0 0.00 0.00 0.00 90 1012.3
20260906023126 76 0 0.0 0.0 0.00 0.00 0.00 89 1012.2
20260906022551 77 0 0.0 0.0 0.00 0.00 0.00 90 1012.3
20260906022045 77 0 0.0 0.0 0.00 0.00 0.00 89 1012.3
20260906021614 77 0 0.0 0.0 0.00 0.00 0.00 89 1012.4
20260906021046 77 0 0.0 0.0 0.00 0.00 0.00 88 1012.3
20260906020546 77 0 0.0 0.0 0.00 0.00 0.00 89 1012.3
20260906020104 77 0 0.0 0.0 0.00 0.00 0.00 88 1012.2
20260906015545 77 0 0.0 0.0 0.00 0.00 0.00 88 1012.2
20260906015047 78 0 0.0 0.0 0.00 0.00 0.00 88 1012.2
20260906014614 78 0 0.0 0.9 0.00 0.00 0.00 88 1012.1
20260906014046 78 0 0.0 1.7 0.00 0.00 0.00 88 1012.2
20260906013547 78 0 0.0 1.7 0.00 0.00 0.00 88 1012.4
20260906013104 78 360 0.0 2.6 0.00 0.00 0.00 88 1012.5
20260906012547 78 360 0.0 4.3 0.00 0.00 0.00 87 1012.4
20260906012046 78 360 1.7 4.3 0.00 0.00 0.00 88 1012.3
20260906011607 78 360 1.7 4.3 0.00 0.00 0.00 88 1012.4
20260906011046 78 360 1.7 3.5 0.00 0.00 0.00 86 1012.1
20260906010545 79 360 0.0 2.6 0.00 0.00 0.00 86 1012.0
20260906010105 79 360 1.7 2.6 0.00 0.00 0.00 85 1011.9
20260906005547 79 0 0.0 0.0 0.00 0.00 0.00 84 1011.8
20260906005047 79 0 0.0 0.0 0.00 0.00 0.00 83 1011.6
20260906004601 80 0 0.0 0.0 0.00 0.00 0.00 82 1011.6
20260906004045 80 0 0.0 0.0 0.00 0.00 0.00 82 1011.8
20260906003546 81 0 0.0 0.0 0.00 0.00 0.00 81 1011.9
20260906003110 81 0 0.0 0.0 0.00 0.00 0.00 80 1012.1
20260906002548 81 0 0.0 0.0 0.00 0.00 0.00 80 1012.0
20260906002045 81 0 0.0 0.0 0.00 0.00 0.00 80 1011.9
20260906001606 82 0 0.0 0.0 0.00 0.00 0.00 80 1011.9
20260906001047 82 0 0.0 0.0 0.00 0.00 0.00 80 1011.8
20260906000545 83 0 0.0 2.6 0.00 0.00 0.00 81 1011.8
20260906000105 83 0 0.0 2.6 0.00 0.00 0.00 78 1011.9
20260905235545 83 0 0.0 2.6 0.00 0.00 0.00 78 1011.8
20260905235047 84 360 0.0 1.7 0.00 0.00 0.00 79 1011.8
20260905234614 84 0 0.0 2.6 0.00 0.00 0.00 80 1011.7
20260905234048 84 268 0.0 2.6 0.00 0.00 0.00 80 1011.7
20260905233547 85 0 0.0 2.6 0.00 0.00 0.00 79 1011.8
20260905233106 85 0 0.0 2.6 0.00 0.00 0.00 79 1011.8
20260905232545 85 0 0.0 3.5 0.00 0.00 0.00 79 1011.7
20260905232045 86 199 0.0 4.3 0.00 0.00 0.00 78 1011.8
20260905231558 86 185 0.9 4.3 0.00 0.00 0.00 78 1011.7
20260905231045 87 0 0.0 1.7 0.00 0.00 0.00 78 1011.5
20260905230545 87 0 0.0 1.7 0.00 0.00 0.00 78 1011.5
20260905230103 87 0 0.0 1.7 0.00 0.00 0.00 76 1011.4
20260905225548 87 244 0.0 2.6 0.00 0.00 0.00 76 1011.5
20260905225047 87 260 0.0 3.5 0.00 0.00 0.00 75 1011.4
20260905224610 88 0 0.0 3.5 0.00 0.00 0.00 75 1011.4
20260905224044 88 246 0.9 3.5 0.00 0.00 0.00 76 1011.4
20260905223547 88 298 0.9 2.6 0.00 0.00 0.00 75 1011.2
20260905223107 88 124 0.0 5.2 0.00 0.00 0.00 75 1011.2
20260905222545 88 180 0.0 5.2 0.00 0.00 0.00 74 1011.2
20260905222045 88 167 1.7 6.1 0.00 0.00 0.00 73 1011.2
20260905221605 88 309 0.0 6.1 0.00 0.00 0.00 74 1011.2
20260905221047 88 251 0.9 6.1 0.00 0.00 0.00 74 1011.3
20260905220549 89 0 0.0 3.5 0.00 0.00 0.00 74 1011.4
20260905220103 89 0 0.0 3.5 0.00 0.00 0.00 73 1011.3
20260905215548 89 281 0.9 3.5 0.00 0.00 0.00 74 1011.4
20260905215046 89 142 0.9 6.1 0.00 0.00 0.00 73 1011.6
20260905214613 89 254 0.9 6.1 0.00 0.00 0.00 72 1011.7
20260905214048 89 149 2.6 6.1 0.00 0.00 0.00 72 1011.7
20260905213547 89 165 0.9 6.1 0.00 0.00 0.00 74 1011.7
20260905213117 89 0 0.0 3.5 0.00 0.00 0.00 72 1011.7
20260905212545 89 0 0.9 3.5 0.00 0.00 0.00 70 1011.6
20260905212045 88 134 0.9 2.6 0.00 0.00 0.00 71 1011.6
20260905211603 88 167 0.0 2.6 0.00 0.00 0.00 69 1011.6
20260905211047 88 0 0.0 3.5 0.00 0.00 0.00 72 1011.7
20260905210548 88 263 0.9 3.5 0.00 0.00 0.00 73 1011.9
20260905210106 88 106 0.9 2.6 0.00 0.00 0.00 72 1011.8
20260905205545 88 0 0.0 2.6 0.00 0.00 0.00 74 1011.8
20260905205049 87 95 0.0 2.6 0.00 0.00 0.00 72 1011.9
20260905204602 87 140 0.0 3.5 0.00 0.00 0.00 74 1011.9
20260905204045 87 62 0.9 3.5 0.00 0.00 0.00 74 1011.9
20260905203548 87 92 0.9 3.5 0.00 0.00 0.00 73 1012.1
20260905203056 87 169 0.0 3.5 0.00 0.00 0.00 77 1012.2
20260905202546 87 107 0.9 4.3 0.00 0.00 0.00 77 1012.3
20260905202049 87 0 0.9 5.2 0.00 0.00 0.00 78 1012.5
20260905201607 87 202 0.9 6.1 0.00 0.00 0.00 78 1012.6
20260905201046 87 178 0.9 6.1 0.00 0.00 0.00 79 1012.6
20260905200547 86 187 0.9 4.3 0.00 0.00 0.00 79 1012.4
20260905195548 86 178 1.7 6.1 0.00 0.00 0.00 80 1012.5
20260905195049 85 106 0.9 6.1 0.00 0.00 0.00 82 1012.7
20260905194603 85 181 2.6 6.1 0.00 0.00 0.00 83 1012.8
20260905194049 84 0 0.0 2.6 0.00 0.00 0.00 85 1012.9
20260905193546 84 0 0.0 2.6 0.00 0.00 0.00 87 1012.9
20260905193101 83 0 0.0 2.6 0.00 0.00 0.00 87 1012.9
20260905192550 83 0 0.0 3.5 0.00 0.00 0.00 87 1012.9
20260905192047 83 360 1.7 3.5 0.00 0.00 0.00 87 1013.0
20260905191614 82 0 0.0 0.0 0.00 0.00 0.00 87 1013.2
20260905191048 82 0 0.0 2.6 0.00 0.00 0.00 87 1013.3
20260905190551 82 0 0.0 4.3 0.00 0.00 0.00 86 1013.3
20260905185553 82 360 2.6 7.0 0.00 0.00 0.00 86 1013.5
20260905185049 82 360 2.6 7.0 0.00 0.00 0.00 86 1013.7
20260905184614 82 360 2.6 4.3 0.00 0.00 0.00 85 1013.4
20260905184047 82 360 0.9 4.3 0.00 0.00 0.00 85 1013.3
20260905183549 83 360 1.7 4.3 0.00 0.00 0.00 84 1013.1
20260905183106 83 360 0.9 4.3 0.00 0.00 0.00 84 1013.2
20260905182552 83 360 2.6 4.3 0.00 0.00 0.00 82 1013.3
20260905182053 84 360 0.9 4.3 0.00 0.00 0.00 81 1013.3
20260905181610 85 360 0.9 4.3 0.00 0.00 0.00 80 1013.3
20260905181049 86 360 2.6 4.3 0.00 0.00 0.00 77 1013.5
20260905180550 88 360 0.0 3.5 0.00 0.00 0.00 74 1013.6
20260905180108 89 0 0.0 5.2 0.00 0.00 0.00 72 1013.5
20260905175550 90 14 1.7 7.8 0.00 0.00 0.00 68 1013.9
20260905175047 91 324 1.7 8.7 0.00 0.00 0.00 65 1013.8
20260905174614 93 307 2.6 13.9 0.00 0.00 0.00 60 1013.7
20260905174050 95 13 5.2 13.9 0.00 0.00 0.00 57 1013.8
20260905173550 98 0 0.9 7.8 0.00 0.00 0.00 55 1013.8
20260905173113 99 57 3.5 8.7 0.00 0.00 0.00 54 1013.9
20260905172550 99 46 2.6 8.7 0.00 0.00 0.00 54 1013.9
20260905172051 99 59 1.7 3.5 0.00 0.00 0.00 53 1013.7
20260905171605 99 60 0.0 4.3 0.00 0.00 0.00 54 1013.6
20260905171049 99 42 1.7 4.3 0.00 0.00 0.00 57 1013.7
20260905170548 99 332 1.7 3.5 0.00 0.00 0.00 55 1014.0
20260905170106 98 45 0.9 3.5 0.00 0.00 0.00 57 1013.9
20260905165549 97 0 0.0 2.6 0.00 0.00 0.00 60 1013.9
20260905165047 96 0 0.9 2.6 0.00 0.00 0.00 58 1014.0
20260905164601 95 49 0.0 2.6 0.00 0.00 0.00 61 1014.3
20260905164047 94 17 0.0 3.5 0.00 0.00 0.00 63 1014.3
20260905163552 94 298 0.9 5.2 0.00 0.00 0.00 61 1014.2
20260905163108 94 240 0.9 5.2 0.00 0.00 0.00 61 1014.2
20260905162550 94 269 0.9 3.5 0.00 0.00 0.00 60 1014.2
20260905162047 94 215 0.9 3.5 0.00 0.00 0.00 62 1014.3
20260905161603 93 279 0.0 3.5 0.00 0.00 0.00 67 1014.4
20260905161049 93 144 0.9 3.5 0.00 0.00 0.00 65 1014.4
20260905160549 92 171 0.9 2.6 0.00 0.00 0.00 67 1014.4
20260905160105 92 0 0.9 3.5 0.00 0.00 0.00 66 1014.3
20260905155548 92 250 0.9 3.5 0.00 0.00 0.00 67 1014.3
20260905155049 92 323 1.7 3.5 0.00 0.00 0.00 65 1014.5
20260905154606 92 268 0.9 3.5 0.00 0.00 0.00 66 1014.6
20260905154051 92 0 0.0 4.3 0.00 0.00 0.00 69 1014.5
20260905153550 91 43 0.9 7.0 0.00 0.00 0.00 69 1014.5
20260905153111 90 157 0.9 7.0 0.00 0.00 0.00 72 1014.4
20260905152552 89 0 1.7 7.0 0.00 0.00 0.00 73 1014.4
20260905152049 88 84 0.9 3.5 0.00 0.00 0.00 75 1014.5
20260905151605 88 190 0.0 3.5 0.00 0.00 0.00 77 1014.7
20260905151050 87 306 0.9 3.5 0.00 0.00 0.00 77 1014.7
20260905150549 87 0 0.9 2.6 0.00 0.00 0.00 75 1014.6
20260905145550 88 0 0.0 1.7 0.00 0.00 0.00 77 1014.5
20260905145050 87 0 0.0 1.7 0.00 0.00 0.00 78 1014.6
20260905144611 87 0 0.0 2.6 0.00 0.00 0.00 77 1014.6
20260905144052 86 0 0.0 2.6 0.00 0.00 0.00 79 1014.6
20260905143553 85 331 0.0 2.6 0.00 0.00 0.00 81 1014.6
20260905143108 85 0 0.0 1.7 0.00 0.00 0.00 81 1014.6
20260905142550 84 333 0.0 3.5 0.00 0.00 0.00 83 1014.5
20260905142051 84 15 0.9 3.5 0.00 0.00 0.00 83 1014.7
20260905141615 83 336 0.0 2.6 0.00 0.00 0.00 82 1014.8
20260905141049 83 0 0.0 2.6 0.00 0.00 0.00 84 1014.7
20260905140547 82 0 0.0 2.6 0.00 0.00 0.00 85 1014.8
20260905140105 82 5 0.0 1.7 0.00 0.00 0.00 87 1014.9
20260905135550 81 0 0.0 1.7 0.00 0.00 0.00 88 1014.7
20260905135050 80 0 0.0 1.7 0.00 0.00 0.00 88 1014.8
20260905134613 80 0 0.0 2.6 0.00 0.00 0.00 89 1014.9
20260905134050 79 0 0.0 2.6 0.00 0.00 0.00 90 1015.0
20260905133551 79 23 0.0 2.6 0.00 0.00 0.00 91 1015.1
20260905133103 78 0 0.0 0.9 0.00 0.00 0.00 92 1015.0
20260905132549 78 17 0.0 0.9 0.00 0.00 0.00 92 1015.0
20260905132049 77 0 0.0 0.0 0.00 0.00 0.00 92 1015.2
20260905131608 77 0 0.0 0.0 0.00 0.00 0.00 93 1015.2
20260905131050 76 0 0.0 0.9 0.00 0.00 0.00 94 1015.3
20260905130550 76 0 0.0 1.7 0.00 0.00 0.00 95 1015.4
20260905130113 76 0 0.0 1.7 0.00 0.00 0.00 96 1015.4
20260905125550 75 0 0.9 1.7 0.00 0.00 0.00 96 1015.3
20260905125050 75 0 0.0 0.9 0.00 0.00 0.00 97 1015.3
20260905124605 75 0 0.0 1.7 0.00 0.00 0.00 97 1015.3
20260905124046 74 355 0.0 1.7 0.00 0.00 0.00 97 1015.2
20260905123549 74 0 0.0 2.6 0.00 0.00 0.00 97 1015.3
20260905123109 74 360 0.9 2.6 0.00 0.00 0.00 97 1015.2
20260905122550 73 360 0.0 1.7 0.00 0.00 0.00 98 1015.2
20260905122049 73 0 0.0 1.7 0.00 0.00 0.00 98 1015.2
20260905121605 73 360 0.0 0.9 0.00 0.00 0.00 98 1015.2
20260905121049 72 0 0.0 0.9 0.00 0.00 0.00 98 1015.2
20260905120550 72 0 0.0 0.9 0.00 0.00 0.00 98 1015.1
20260905120111 72 360 0.0 1.7 0.00 0.00 0.00 98 1015.0
20260905115552 72 0 0.0 2.6 0.00 0.00 0.00 98 1014.8
20260905115050 72 0 0.0 2.6 0.00 0.00 0.00 98 1014.7
20260905114637 72 360 0.9 2.6 0.00 0.00 0.00 98 1014.6
20260905114050 72 360 0.0 2.6 0.00 0.00 0.00 98 1014.5
20260905113550 72 360 0.9 2.6 0.00 0.00 0.00 98 1014.4
20260905113104 72 360 0.9 2.6 0.00 0.00 0.00 97 1014.4
20260905112550 72 0 0.0 2.6 0.00 0.00 0.00 97 1014.3
20260905112046 72 360 0.9 2.6 0.00 0.00 0.00 97 1014.2
20260905111605 72 360 0.0 1.7 0.00 0.00 0.00 97 1014.1
20260905111049 72 0 0.0 0.9 0.00 0.00 0.00 97 1014.2
20260905110549 72 0 0.0 0.9 0.00 0.00 0.00 97 1014.1
20260905110104 72 0 0.0 0.0 0.00 0.00 0.00 97 1014.1
20260905105549 72 0 0.0 0.0 0.00 0.00 0.00 97 1013.9
20260905105049 72 0 0.0 0.0 0.00 0.00 0.00 97 1013.8
20260905104608 72 0 0.0 0.0 0.00 0.00 0.00 97 1013.9
20260905104050 72 0 0.0 0.9 0.00 0.00 0.00 97 1013.7
20260905103545 72 0 0.0 0.9 0.00 0.00 0.00 97 1013.7
20260905103104 72 0 0.0 0.9 0.00 0.00 0.00 98 1013.7
20260905102546 72 0 0.0 0.0 0.00 0.00 0.00 97 1013.6
20260905102048 72 0 0.0 0.0 0.00 0.00 0.00 97 1013.6
20260905101604 72 0 0.0 0.0 0.00 0.00 0.00 97 1013.5